| time (UTC) | temp C | wind direction | speed KPH | gust KPH | rain 1hr cm | rain 24hr cm | rain mn cm | humidity % | barometer mb |
| 20260506061942 | 0 | 333 | 0.0 | 0.0 | 0.00 | 0.05 | 0.00 | 91 | 1015.4 |
| 20260506060944 | 0 | 333 | 0.0 | 0.0 | 0.00 | 0.05 | 0.00 | 91 | 1015.5 |
| 20260506060441 | 0 | 333 | 0.0 | 0.0 | 0.00 | 0.05 | 0.00 | 91 | 1015.5 |
| 20260506050837 | 0 | 333 | 0.0 | 0.0 | 0.00 | 0.05 | 0.05 | 91 | 1015.0 |
| 20260506050331 | 0 | 333 | 0.0 | 0.0 | 0.00 | 0.05 | 0.05 | 91 | 1015.0 |
| 20260506044307 | 0 | 333 | 0.0 | 1.6 | 0.00 | 0.05 | 0.05 | 91 | 1015.1 |
| 20260506043800 | 0 | 333 | 0.0 | 1.6 | 0.00 | 0.05 | 0.05 | 90 | 1015.2 |
| 20260506043257 | 0 | 333 | 0.0 | 1.6 | 0.00 | 0.05 | 0.05 | 90 | 1015.2 |
| 20260506042757 | 0 | 333 | 0.0 | 1.6 | 0.00 | 0.05 | 0.05 | 90 | 1015.1 |
| 20260506041759 | 0 | 333 | 0.0 | 4.8 | 0.00 | 0.05 | 0.05 | 90 | 1015.1 |
| 20260506040756 | 0 | 333 | 0.0 | 3.2 | 0.00 | 0.05 | 0.05 | 90 | 1015.0 |
| 20260506040257 | 0 | 333 | 0.0 | 3.2 | 0.00 | 0.05 | 0.05 | 90 | 1015.0 |
| 20260506035757 | 0 | 333 | 0.0 | 3.2 | 0.00 | 0.05 | 0.05 | 90 | 1015.1 |
| 20260506035254 | 0 | 333 | 0.0 | 3.2 | 0.00 | 0.05 | 0.05 | 90 | 1015.0 |
| 20260506034753 | 0 | 333 | 0.0 | 1.6 | 0.00 | 0.05 | 0.05 | 90 | 1015.0 |
| 20260506034253 | 0 | 333 | 0.0 | 1.6 | 0.00 | 0.05 | 0.05 | 90 | 1015.0 |
| 20260506033753 | 0 | 333 | 0.0 | 4.8 | 0.00 | 0.05 | 0.05 | 90 | 1014.7 |
| 20260506033251 | 0 | 333 | 0.0 | 4.8 | 0.00 | 0.05 | 0.05 | 90 | 1014.6 |
| 20260506032249 | 0 | 333 | 0.0 | 4.8 | 0.00 | 0.05 | 0.05 | 90 | 1014.6 |
| 20260506031749 | 0 | 333 | 0.0 | 3.2 | 0.00 | 0.05 | 0.05 | 90 | 1014.6 |
| 20260506030748 | 0 | 333 | 0.0 | 3.2 | 0.00 | 0.05 | 0.05 | 90 | 1014.4 |
| 20260506030249 | 0 | 333 | 0.0 | 3.2 | 0.00 | 0.05 | 0.05 | 90 | 1014.3 |
| 20260506025246 | 0 | 333 | 0.0 | 4.8 | 0.00 | 0.05 | 0.05 | 90 | 1014.1 |
| 20260506024746 | 0 | 333 | 0.0 | 1.6 | 0.00 | 0.05 | 0.05 | 90 | 1014.0 |
| 20260506024248 | 0 | 333 | 0.0 | 1.6 | 0.00 | 0.05 | 0.05 | 90 | 1013.9 |
| 20260506023748 | 0 | 333 | 0.0 | 1.6 | 0.00 | 0.05 | 0.05 | 90 | 1013.8 |
| 20260506023248 | 0 | 333 | 0.0 | 0.0 | 0.00 | 0.05 | 0.05 | 90 | 1013.7 |
| 20260506022748 | 0 | 333 | 0.0 | 0.0 | 0.00 | 0.05 | 0.05 | 90 | 1013.6 |
| 20260506021743 | 0 | 333 | 0.0 | 0.0 | 0.00 | 0.05 | 0.05 | 90 | 1013.4 |
| 20260506020743 | 0 | 333 | 0.0 | 3.2 | 0.00 | 0.05 | 0.05 | 90 | 1013.3 |
| 20260506020244 | 0 | 333 | 0.0 | 3.2 | 0.00 | 0.05 | 0.05 | 90 | 1013.3 |
| 20260506015742 | 0 | 333 | 0.0 | 1.6 | 0.00 | 0.05 | 0.05 | 90 | 1013.2 |
| 20260506015244 | 0 | 333 | 0.0 | 3.2 | 0.00 | 0.05 | 0.05 | 90 | 1013.1 |
| 20260506014742 | 0 | 333 | 0.0 | 3.2 | 0.00 | 0.05 | 0.05 | 89 | 1013.1 |
| 20260506014242 | 0 | 333 | 0.0 | 1.6 | 0.00 | 0.05 | 0.05 | 89 | 1013.2 |
| 20260506013738 | 0 | 333 | 0.0 | 1.6 | 0.00 | 0.05 | 0.05 | 89 | 1013.1 |
| 20260506013239 | 0 | 333 | 0.0 | 1.6 | 0.00 | 0.05 | 0.05 | 89 | 1013.0 |
| 20260506011738 | 0 | 333 | 0.0 | 1.6 | 0.00 | 0.05 | 0.05 | 89 | 1012.9 |
| 20260506011238 | 0 | 333 | 0.0 | 1.6 | 0.00 | 0.05 | 0.05 | 89 | 1012.6 |
| 20260506010738 | 0 | 333 | 0.0 | 1.6 | 0.00 | 0.05 | 0.05 | 89 | 1012.6 |
| 20260506010238 | 0 | 333 | 0.0 | 1.6 | 0.00 | 0.05 | 0.05 | 89 | 1012.7 |
| 20260506005738 | 0 | 333 | 0.0 | 1.6 | 0.00 | 0.05 | 0.05 | 89 | 1012.7 |
| 20260506005238 | 0 | 333 | 0.0 | 1.6 | 0.00 | 0.05 | 0.05 | 89 | 1012.7 |
| 20260506004232 | 0 | 333 | 0.0 | 1.6 | 0.00 | 0.05 | 0.05 | 89 | 1012.5 |
| 20260506003217 | 0 | 333 | 0.0 | 1.6 | 0.00 | 0.05 | 0.05 | 89 | 1012.6 |
| 20260506002712 | 0 | 333 | 0.0 | 1.6 | 0.00 | 0.05 | 0.05 | 89 | 1012.4 |
| 20260506002206 | 0 | 333 | 0.0 | 1.6 | 0.00 | 0.05 | 0.05 | 89 | 1012.5 |
| 20260506001155 | 0 | 333 | 0.0 | 1.6 | 0.00 | 0.05 | 0.05 | 89 | 1012.3 |
| 20260506000142 | 0 | 333 | 0.0 | 1.6 | 0.00 | 0.05 | 0.05 | 89 | 1012.5 |
| 20260505235636 | 0 | 333 | 0.0 | 0.0 | 0.00 | 0.05 | 0.05 | 89 | 1012.3 |
| 20260505234623 | 0 | 333 | 0.0 | 1.6 | 0.00 | 0.05 | 0.05 | 88 | 1012.2 |
| 20260505234117 | 1 | 333 | 0.0 | 1.6 | 0.00 | 0.05 | 0.05 | 88 | 1012.0 |
| 20260505233612 | 1 | 333 | 0.0 | 3.2 | 0.00 | 0.05 | 0.05 | 88 | 1012.0 |
| 20260505232600 | 1 | 333 | 0.0 | 4.8 | 0.00 | 0.05 | 0.05 | 88 | 1012.2 |
| 20260505231547 | 2 | 250 | 1.6 | 9.7 | 0.00 | 0.05 | 0.05 | 88 | 1012.2 |
| 20260505231042 | 2 | 355 | 1.6 | 9.7 | 0.00 | 0.05 | 0.05 | 88 | 1012.3 |
| 20260505230536 | 3 | 319 | 1.6 | 8.0 | 0.00 | 0.05 | 0.05 | 89 | 1012.4 |
| 20260505225524 | 3 | 316 | 0.0 | 6.4 | 0.03 | 0.05 | 0.05 | 88 | 1011.8 |
| 20260505225017 | 3 | 316 | 1.6 | 6.4 | 0.03 | 0.05 | 0.05 | 88 | 1011.6 |
| 20260505224511 | 3 | 315 | 1.6 | 9.7 | 0.03 | 0.05 | 0.05 | 88 | 1011.5 |
| 20260505224006 | 3 | 351 | 1.6 | 9.7 | 0.03 | 0.05 | 0.05 | 89 | 1011.3 |
| 20260505223501 | 3 | 345 | 1.6 | 8.0 | 0.03 | 0.05 | 0.05 | 89 | 1011.2 |
| 20260505222954 | 3 | 351 | 1.6 | 8.0 | 0.03 | 0.05 | 0.05 | 88 | 1011.3 |
| 20260505221942 | 3 | 355 | 1.6 | 12.9 | 0.03 | 0.05 | 0.05 | 88 | 1011.3 |
| 20260505221435 | 3 | 355 | 1.6 | 12.9 | 0.03 | 0.05 | 0.05 | 88 | 1011.3 |
| 20260505220424 | 3 | 355 | 1.6 | 11.3 | 0.03 | 0.05 | 0.05 | 88 | 1011.0 |
| 20260505215917 | 4 | 355 | 1.6 | 6.4 | 0.00 | 0.03 | 0.03 | 88 | 1011.0 |
| 20260505215411 | 4 | 325 | 1.6 | 11.3 | 0.00 | 0.03 | 0.03 | 88 | 1011.1 |
| 20260505214906 | 5 | 75 | 0.0 | 11.3 | 0.00 | 0.03 | 0.03 | 88 | 1011.1 |
| 20260505214359 | 5 | 335 | 1.6 | 6.4 | 0.00 | 0.03 | 0.03 | 88 | 1011.0 |
| 20260505213854 | 5 | 345 | 0.0 | 6.4 | 0.00 | 0.03 | 0.03 | 88 | 1011.0 |
| 20260505213348 | 5 | 348 | 0.0 | 3.2 | 0.00 | 0.03 | 0.03 | 88 | 1011.0 |
| 20260505212841 | 5 | 347 | 0.0 | 4.8 | 0.00 | 0.03 | 0.03 | 88 | 1011.1 |
| 20260505212335 | 5 | 65 | 0.0 | 6.4 | 0.00 | 0.03 | 0.03 | 88 | 1011.1 |
| 20260505211325 | 5 | 76 | 0.0 | 6.4 | 0.00 | 0.03 | 0.03 | 89 | 1011.0 |
| 20260505210819 | 5 | 65 | 0.0 | 6.4 | 0.00 | 0.03 | 0.03 | 89 | 1011.1 |
| 20260505210312 | 5 | 78 | 0.0 | 4.8 | 0.00 | 0.03 | 0.03 | 89 | 1011.1 |
| 20260505205806 | 5 | 79 | 0.0 | 3.2 | 0.00 | 0.03 | 0.03 | 89 | 1011.3 |
| 20260505204247 | 5 | 86 | 0.0 | 6.4 | 0.00 | 0.03 | 0.03 | 89 | 1011.7 |
| 20260505203247 | 5 | 87 | 0.0 | 3.2 | 0.00 | 0.03 | 0.03 | 89 | 1011.9 |
| 20260505202744 | 5 | 87 | 0.0 | 4.8 | 0.00 | 0.03 | 0.03 | 89 | 1012.0 |
| 20260505201742 | 5 | 87 | 0.0 | 3.2 | 0.00 | 0.03 | 0.03 | 89 | 1012.3 |
| 20260505200740 | 5 | 87 | 0.0 | 4.8 | 0.00 | 0.03 | 0.03 | 89 | 1012.2 |
| 20260505200238 | 5 | 87 | 0.0 | 4.8 | 0.00 | 0.03 | 0.03 | 89 | 1012.2 |
| 20260505195736 | 5 | 88 | 0.0 | 3.2 | 0.00 | 0.03 | 0.03 | 89 | 1012.3 |
| 20260505195236 | 5 | 88 | 0.0 | 4.8 | 0.00 | 0.03 | 0.03 | 89 | 1012.3 |
| 20260505194735 | 5 | 88 | 0.0 | 4.8 | 0.00 | 0.03 | 0.03 | 89 | 1012.3 |
| 20260505194234 | 5 | 88 | 0.0 | 4.8 | 0.00 | 0.03 | 0.03 | 89 | 1012.2 |
| 20260505193734 | 5 | 88 | 0.0 | 4.8 | 0.00 | 0.03 | 0.03 | 89 | 1012.2 |
| 20260505193232 | 5 | 82 | 0.0 | 4.8 | 0.00 | 0.03 | 0.03 | 89 | 1012.0 |
| 20260505192732 | 5 | 82 | 1.6 | 6.4 | 0.00 | 0.03 | 0.03 | 89 | 1012.0 |
| 20260505192234 | 5 | 82 | 0.0 | 6.4 | 0.00 | 0.03 | 0.03 | 89 | 1011.9 |
| 20260505191731 | 5 | 85 | 0.0 | 3.2 | 0.00 | 0.03 | 0.03 | 90 | 1011.9 |
| 20260505190733 | 5 | 88 | 0.0 | 4.8 | 0.00 | 0.03 | 0.03 | 90 | 1012.2 |
| 20260505185724 | 5 | 88 | 0.0 | 3.2 | 0.00 | 0.03 | 0.03 | 90 | 1012.4 |
| 20260505185224 | 5 | 88 | 0.0 | 3.2 | 0.00 | 0.03 | 0.03 | 90 | 1012.4 |
| 20260505184723 | 5 | 88 | 1.6 | 4.8 | 0.00 | 0.03 | 0.03 | 90 | 1012.5 |
| 20260505184224 | 5 | 88 | 0.0 | 4.8 | 0.00 | 0.03 | 0.03 | 90 | 1012.6 |
| 20260505183724 | 5 | 88 | 0.0 | 3.2 | 0.00 | 0.03 | 0.03 | 90 | 1012.7 |
| 20260505183223 | 5 | 88 | 0.0 | 3.2 | 0.00 | 0.03 | 0.03 | 90 | 1012.7 |
| 20260505182724 | 4 | 88 | 0.0 | 3.2 | 0.00 | 0.03 | 0.03 | 90 | 1012.7 |
| 20260505182221 | 4 | 89 | 0.0 | 3.2 | 0.00 | 0.03 | 0.03 | 90 | 1012.6 |
| 20260505181720 | 4 | 89 | 0.0 | 4.8 | 0.03 | 0.03 | 0.03 | 90 | 1012.7 |
| 20260505181218 | 4 | 89 | 1.6 | 4.8 | 0.03 | 0.03 | 0.03 | 90 | 1013.0 |
| 20260505180715 | 4 | 89 | 0.0 | 4.8 | 0.03 | 0.03 | 0.03 | 90 | 1013.1 |
| 20260505180216 | 4 | 61 | 0.0 | 3.2 | 0.03 | 0.03 | 0.03 | 90 | 1013.1 |
| 20260505175218 | 4 | 58 | 0.0 | 4.8 | 0.03 | 0.03 | 0.03 | 90 | 1013.2 |
| 20260505174719 | 4 | 55 | 0.0 | 3.2 | 0.03 | 0.03 | 0.03 | 90 | 1013.3 |
| 20260505174215 | 4 | 54 | 0.0 | 6.4 | 0.03 | 0.03 | 0.03 | 90 | 1013.4 |
| 20260505173716 | 4 | 51 | 0.0 | 6.4 | 0.03 | 0.03 | 0.03 | 90 | 1013.4 |
| 20260505172711 | 4 | 70 | 0.0 | 3.2 | 0.03 | 0.03 | 0.03 | 90 | 1013.4 |
| 20260505171711 | 4 | 67 | 0.0 | 4.8 | 0.00 | 0.00 | 0.00 | 90 | 1013.4 |
| 20260505171211 | 4 | 65 | 0.0 | 4.8 | 0.00 | 0.00 | 0.00 | 90 | 1013.3 |
| 20260505170711 | 3 | 65 | 0.0 | 4.8 | 0.00 | 0.00 | 0.00 | 90 | 1013.4 |
| 20260505170212 | 3 | 65 | 0.0 | 3.2 | 0.00 | 0.00 | 0.00 | 90 | 1013.4 |
| 20260505165708 | 3 | 63 | 0.0 | 3.2 | 0.00 | 0.00 | 0.00 | 90 | 1013.6 |
| 20260505164708 | 3 | 63 | 0.0 | 1.6 | 0.00 | 0.00 | 0.00 | 90 | 1013.6 |
| 20260505164207 | 3 | 61 | 0.0 | 3.2 | 0.00 | 0.00 | 0.00 | 90 | 1013.6 |
| 20260505163707 | 3 | 52 | 0.0 | 3.2 | 0.00 | 0.00 | 0.00 | 90 | 1013.7 |
| 20260505163208 | 3 | 54 | 0.0 | 3.2 | 0.00 | 0.00 | 0.00 | 90 | 1013.7 |
| 20260505162707 | 3 | 53 | 0.0 | 4.8 | 0.00 | 0.00 | 0.00 | 90 | 1013.6 |
| 20260505162208 | 3 | 53 | 0.0 | 4.8 | 0.00 | 0.00 | 0.00 | 90 | 1013.7 |
| 20260505161707 | 3 | 53 | 0.0 | 1.6 | 0.00 | 0.00 | 0.00 | 90 | 1013.7 |
| 20260505161203 | 3 | 53 | 0.0 | 1.6 | 0.00 | 0.00 | 0.00 | 90 | 1013.7 |
| 20260505160703 | 3 | 53 | 0.0 | 3.2 | 0.00 | 0.00 | 0.00 | 90 | 1013.8 |
| 20260505160203 | 3 | 53 | 0.0 | 3.2 | 0.00 | 0.00 | 0.00 | 90 | 1013.8 |
| 20260505152155 | 3 | 33 | 0.0 | 1.6 | 0.00 | 0.00 | 0.00 | 90 | 1014.0 |
| 20260505151653 | 3 | 33 | 0.0 | 1.6 | 0.00 | 0.00 | 0.00 | 90 | 1014.0 |
| 20260505151153 | 3 | 33 | 0.0 | 3.2 | 0.00 | 0.00 | 0.00 | 89 | 1014.0 |
| 20260505150653 | 3 | 33 | 0.0 | 3.2 | 0.00 | 0.00 | 0.00 | 89 | 1014.0 |
| 20260505150151 | 3 | 342 | 0.0 | 3.2 | 0.00 | 0.00 | 0.00 | 89 | 1013.9 |
| 20260505124920 | 3 | 324 | 0.0 | 1.6 | 0.00 | 0.00 | 0.00 | 88 | 1013.1 |
| 20260505124422 | 3 | 327 | 0.0 | 4.8 | 0.00 | 0.00 | 0.00 | 88 | 1012.9 |
| 20260505123909 | 3 | 54 | 0.0 | 4.8 | 0.00 | 0.00 | 0.00 | 88 | 1012.9 |
| 20260505123404 | 3 | 340 | 1.6 | 4.8 | 0.00 | 0.00 | 0.00 | 88 | 1012.9 |
| 20260505122856 | 3 | 342 | 0.0 | 4.8 | 0.00 | 0.00 | 0.00 | 88 | 1012.9 |
| 20260505122350 | 3 | 349 | 0.0 | 3.2 | 0.00 | 0.00 | 0.00 | 88 | 1013.0 |
| 20260505121844 | 3 | 342 | 0.0 | 9.7 | 0.00 | 0.00 | 0.00 | 88 | 1012.7 |
| 20260505121339 | 3 | 342 | 1.6 | 9.7 | 0.00 | 0.00 | 0.00 | 88 | 1012.6 |
| 20260505120833 | 3 | 350 | 1.6 | 8.0 | 0.00 | 0.00 | 0.00 | 88 | 1012.6 |
| 20260505120327 | 3 | 5 | 1.6 | 9.7 | 0.00 | 0.00 | 0.00 | 88 | 1012.6 |
| 20260505115821 | 3 | 336 | 1.6 | 9.7 | 0.00 | 0.00 | 0.00 | 88 | 1012.6 |
| 20260505115314 | 3 | 355 | 1.6 | 9.7 | 0.00 | 0.00 | 0.00 | 87 | 1012.4 |
| 20260505114809 | 4 | 294 | 0.0 | 4.8 | 0.00 | 0.00 | 0.00 | 88 | 1012.3 |
| 20260505114303 | 4 | 312 | 0.0 | 6.4 | 0.00 | 0.00 | 0.00 | 88 | 1012.4 |
| 20260505113756 | 4 | 26 | 0.0 | 6.4 | 0.00 | 0.00 | 0.00 | 87 | 1012.4 |
| 20260505113251 | 4 | 345 | 0.0 | 3.2 | 0.00 | 0.00 | 0.00 | 88 | 1012.3 |
| 20260505112744 | 4 | 299 | 0.0 | 6.4 | 0.00 | 0.00 | 0.00 | 88 | 1012.3 |
| 20260505111734 | 4 | 259 | 0.0 | 3.2 | 0.00 | 0.00 | 0.00 | 87 | 1012.2 |
| 20260505111228 | 4 | 43 | 0.0 | 3.2 | 0.00 | 0.00 | 0.00 | 87 | 1012.0 |
| 20260505110722 | 4 | 36 | 0.0 | 3.2 | 0.00 | 0.00 | 0.00 | 87 | 1011.8 |
| 20260505110218 | 5 | 78 | 0.0 | 3.2 | 0.00 | 0.00 | 0.00 | 87 | 1011.6 |
| 20260505102127 | 5 | 71 | 0.0 | 4.8 | 0.00 | 0.00 | 0.00 | 87 | 1011.0 |
| 20260505101115 | 5 | 76 | 0.0 | 1.6 | 0.00 | 0.00 | 0.00 | 87 | 1010.9 |
| 20260505100608 | 5 | 90 | 0.0 | 6.4 | 0.00 | 0.00 | 0.00 | 87 | 1010.8 |
| 20260505095051 | 5 | 94 | 0.0 | 4.8 | 0.00 | 0.00 | 0.00 | 86 | 1010.5 |
| 20260505094550 | 6 | 64 | 0.0 | 4.8 | 0.00 | 0.00 | 0.00 | 86 | 1010.5 |
| 20260505094050 | 6 | 82 | 0.0 | 4.8 | 0.00 | 0.00 | 0.00 | 86 | 1010.4 |
| 20260505093551 | 6 | 91 | 0.0 | 9.7 | 0.00 | 0.00 | 0.00 | 86 | 1010.3 |
| 20260505093048 | 6 | 88 | 0.0 | 9.7 | 0.00 | 0.00 | 0.00 | 86 | 1010.3 |
| 20260505092049 | 7 | 86 | 0.0 | 16.1 | 0.00 | 0.00 | 0.00 | 86 | 1010.3 |
| 20260505091552 | 7 | 87 | 0.0 | 4.8 | 0.00 | 0.00 | 0.00 | 87 | 1010.1 |
| 20260505091049 | 7 | 80 | 0.0 | 1.6 | 0.00 | 0.00 | 0.00 | 86 | 1010.1 |
| 20260505090546 | 8 | 80 | 0.0 | 4.8 | 0.00 | 0.00 | 0.00 | 86 | 1009.9 |
| 20260505090045 | 8 | 80 | 0.0 | 6.4 | 0.00 | 0.00 | 0.00 | 86 | 1010.1 |
| 20260505085545 | 8 | 84 | 0.0 | 6.4 | 0.00 | 0.00 | 0.00 | 86 | 1010.1 |
| 20260505085045 | 8 | 89 | 0.0 | 6.4 | 0.00 | 0.00 | 0.00 | 86 | 1010.2 |
| 20260505084544 | 8 | 80 | 0.0 | 4.8 | 0.00 | 0.00 | 0.00 | 86 | 1010.2 |
| 20260505083544 | 8 | 269 | 0.0 | 1.6 | 0.00 | 0.00 | 0.00 | 86 | 1010.2 |
| 20260505083042 | 9 | 268 | 0.0 | 0.0 | 0.00 | 0.00 | 0.00 | 86 | 1010.2 |
| 20260505082543 | 9 | 268 | 0.0 | 0.0 | 0.00 | 0.00 | 0.00 | 86 | 1010.2 |
| 20260505082038 | 9 | 268 | 0.0 | 0.0 | 0.00 | 0.00 | 0.00 | 86 | 1010.2 |
| 20260505081539 | 9 | 268 | 0.0 | 0.0 | 0.00 | 0.00 | 0.00 | 86 | 1010.3 |
| 20260505081038 | 9 | 268 | 0.0 | 0.0 | 0.00 | 0.00 | 0.00 | 86 | 1010.4 |
| 20260505080538 | 9 | 268 | 0.0 | 1.6 | 0.00 | 0.00 | 0.00 | 86 | 1010.3 |
| 20260505075539 | 9 | 268 | 0.0 | 0.0 | 0.00 | 0.00 | 0.00 | 86 | 1010.4 |
| 20260505075038 | 9 | 268 | 0.0 | 1.6 | 0.00 | 0.00 | 0.00 | 86 | 1010.4 |
| 20260505074539 | 9 | 268 | 0.0 | 1.6 | 0.00 | 0.00 | 0.00 | 86 | 1010.4 |
| 20260505074039 | 9 | 267 | 0.0 | 0.0 | 0.00 | 0.00 | 0.00 | 86 | 1010.4 |
| 20260505073538 | 9 | 267 | 0.0 | 0.0 | 0.00 | 0.00 | 0.00 | 86 | 1010.4 |
| 20260505073038 | 9 | 267 | 0.0 | 0.0 | 0.00 | 0.00 | 0.00 | 86 | 1010.3 |
| 20260505072039 | 9 | 267 | 0.0 | 0.0 | 0.00 | 0.00 | 0.00 | 85 | 1010.4 |
| 20260505071538 | 9 | 267 | 0.0 | 0.0 | 0.00 | 0.00 | 0.00 | 85 | 1010.3 |
| 20260505071038 | 9 | 267 | 0.0 | 0.0 | 0.00 | 0.00 | 0.00 | 85 | 1010.3 |
| 20260505070038 | 9 | 267 | 0.0 | 0.0 | 0.00 | 0.00 | 0.00 | 86 | 1010.3 |
| 20260505065538 | 9 | 267 | 0.0 | 0.0 | 0.00 | 0.00 | 0.00 | 86 | 1010.3 |
| 20260505065039 | 9 | 267 | 0.0 | 0.0 | 0.00 | 0.00 | 0.00 | 86 | 1010.3 |
| 20260505064539 | 9 | 267 | 0.0 | 0.0 | 0.00 | 0.00 | 0.00 | 86 | 1010.4 |
| 20260505064041 | 9 | 267 | 0.0 | 0.0 | 0.00 | 0.00 | 0.00 | 86 | 1010.3 |
| 20260505063036 | 9 | 267 | 0.0 | 0.0 | 0.00 | 0.00 | 0.00 | 85 | 1010.4 |
| 20260505062535 | 9 | 267 | 0.0 | 0.0 | 0.00 | 0.00 | 0.00 | 85 | 1010.4 |